Regional Weather Roundup
Issued by NWS

Home | Current Version | Previous Version | Graphics & Text | Print | Product List | Glossary On
Versions: 1 2 3 4 5 6 7 8 9 10 11 12 13 14 15 16 17 18 19 20 21 22 23 24 25 26 27 28 29 30 31 32 33 34 35 36 37 38 39 40 41 42 43 44 45 46 47 48 49
000
ASUS45 KBOU 272207
RWRCO

WEATHER ROUNDUP FOR COLORADO
NATIONAL WEATHER SERVICE DENVER/BOULDER CO
400 PM MDT SUN JUL 27 2014

NOTE: "FAIR" INDICATES FEW OR NO CLOUDS BELOW 12000 FEET WITH NO
SIGNIFICANT WEATHER AND/OR OBSTRUCTIONS TO VISIBILITY.

COZ001>005-013-030-031-272300-
...NORTHWEST COLORADO...

CITY           SKY/WX    TMP DP  RH WIND       PRES   REMARKS
CRAIG          PTSUNNY   80  37  21 W8        30.32F
HAYDEN         PTSUNNY   82  28  14 W13       30.35F
MEEKER         MOSUNNY   86  36  16 VRB5      30.33F
MOUNT WERNER   NOT AVBL
STEAMBOAT SPGS PTSUNNY   80  36  20 S6        30.38F
WALDEN         CLOUDY    75  36  23 NW12      30.46F
$$

COZ006>008-011-272300-
...WEST CENTRAL VALLEYS...

CITY           SKY/WX    TMP DP  RH WIND       PRES   REMARKS
GRAND JUNCTION MOSUNNY   95  44  17 W8        30.14F
MONTROSE       CLOUDY    78  51  38 S14       30.28R
EAGLE          MOSUNNY   84  39  20 W17G24    30.33F
RIFLE          SUNNY     93  37  14 NW10      30.22F
DELTA          CLOUDY    85  50  30 S10G20    30.21R
NUCLA          LGT RAIN  73  54  49 E22       30.29S
$$

COZ017>023-064>068-272300-
...SOUTHWEST COLORADO...

CITY           SKY/WX    TMP DP  RH WIND       PRES   REMARKS
DURANGO        PTSUNNY   89  43  20 NE13      30.27F
CORTEZ         MOSUNNY   92  38  15 VRB5      30.22F
PAGOSA SPRINGS TSTM      71  45  38 NW14      30.41R
TELLURIDE      CLOUDY    70  46  43 CALM      30.55S
WOLF CREEK PAS NOT AVBL
$$

COZ009-010-012-014-032>034-037-058>063-272300-
...CENTRAL COLORADO...

CITY           SKY/WX    TMP DP  RH WIND       PRES   REMARKS
ASPEN          PTSUNNY   82  40  22 NW9G29    30.39F
BUENA VISTA    CLOUDY    73  46  37 SE12      30.48R
COPPER MTN     CLOUDY    68  37  32 NW6       30.79F
BERTHOUD PASS  CLOUDY    46  32  57 MISG      30.85S THUNDER
COTTONWOOD PAS TSTM      64  45  48 SW13G22   30.64R
GUNNISON       CLOUDY    73  45  35 NW9       30.46S
KREMMLING      MOSUNNY   84  25  11 NW3       30.40F
LEADVILLE      RAIN      60  46  59 SE15      30.60R
MONARCH PASS   CLOUDY    52  43  71 E12       30.89S
SALIDA         CLOUDY   N/A N/A N/A E15G24    30.52R
SUNLIGHT       MOSUNNY   68  43  40 NW5       30.70F
WILKERSON PASS NOT AVBL
$$

COZ069>075-272300-
...SAN LUIS VALLEY/SANGRE DE CRISTO MOUNTAINS...

CITY           SKY/WX    TMP DP  RH WIND       PRES   REMARKS
ALAMOSA        LGT RAIN  71  50  47 VRB6      30.44R
LA VETA PASS   CLOUDY    63  52  67 E16G22    30.67R
SAGUACHE       CLOUDY    73  45  35 NW20G26   30.45F
$$

COZ035-036-038>040-272300-
...NORTHERN COLORADO FRONT RANGE...

CITY           SKY/WX    TMP DP  RH WIND       PRES   REMARKS
DENVER INTL AP PTSUNNY   83  54  36 NW7       30.31F
DMNS CITY PARK   N/A     78  58  51 N8        30.31F
AURORA         PTSUNNY   82  58  43 CALM      30.33F
FRONT RANGE AP NOT AVBL
ERIE MUNI ARPT PTSUNNY   78  58  50 CALM      30.31F
BOULDER MUN AP PTSUNNY   77  57  50 CALM      30.32
CENTENNIAL     PTSUNNY   82  57  42 NW12      30.34F
BROOMFIELD     PTSUNNY   75  59  57 NW3       30.36F
FORT COLLINS   MOSUNNY   82  59  44 NE8       30.31F
LONGMONT       MOSUNNY   88  57  35 N6        30.32F
$$

COZ041-046-047-076>085-087-088-272300-
...PIKES PEAK/PALMER DIVIDE AND SOUTHERN FOOTHILLS...

CITY           SKY/WX    TMP DP  RH WIND       PRES   REMARKS
COLO. SPRINGS  CLOUDY    79  55  43 SE14      30.38F
A. F. ACADEMY  CLOUDY    76  53  44 SE10      30.40F
ELLICOTT       CLOUDY    80  54  40 SE10G21   30.37F
FALCON         CLOUDY    76  53  44 S10       30.44F
FORT CARSON    CLOUDY    81  57  43 S10       30.35F
LIMON          MOSUNNY   82  51  34 SE14G24   30.33F
MONUMENT HILL  PTSUNNY   72  54  53 S13       30.44S
TRINIDAD       CLOUDY    81  54  39 E9        30.32S
$$

COZ042>045-048>051-090-091-272300-
...NORTHEAST COLORADO...

CITY           SKY/WX    TMP DP  RH WIND       PRES   REMARKS
GREELEY ARPT   SUNNY     82  55  39 E12G21    30.28F
AKRON          SUNNY     85  46  25 SE15G24   30.31F
BURLINGTON     SUNNY     85  48  27 SE9G22    30.29F
WRAY             N/A     90  41  18 E9G18     30.27S
STERLING       SUNNY     90  52  27 SE8       30.26F
HOLYOKE        SUNNY     86  48  26 E5        30.29F
FORT MORGAN    SUNNY     89  47  24 E13G23    30.28F
$$

COZ086-089-092>099-272300-
...SOUTHEAST COLORADO...

CITY           SKY/WX    TMP DP  RH WIND       PRES   REMARKS
PUEBLO         PTSUNNY   84  59  42 SE9       30.27F
LA JUNTA       SUNNY     88  61  40 E10G24    30.24F
LAMAR          PTSUNNY   86  62  44 E13G21    30.22F
SPRINGFIELD      N/A     84  63  49 E16G25    30.25F
$$



USA.gov is the U.S. government's official web portal to all federal, state and local government web resources and services.